This is the latest recevied weather packets stored in our database for station/object W5GMO. If no packets are shown the sender has not sent any weather packets the latest 10 day(s).
| Time | Temp. | Humidity | Pressure | Rain* | Wind** | Luminosity | Snow |
|---|---|---|---|---|---|---|---|
| 1777563663 | 18.33° C | 44% | 1009.5 hPa | 0 mm | - | 832 W/m² | - |
| 1777563361 | 18.33° C | 44% | 1009.6 hPa | 0 mm | - | 788 W/m² | - |
| 1777563058 | 18.33° C | 43% | 1009.7 hPa | 0 mm | - | 221 W/m² | - |
| 1777562754 | 18.33° C | 44% | 1009.6 hPa | 0 mm | - | 464 W/m² | - |
| 1777562149 | 18.33° C | 44% | 1009.6 hPa | 0 mm | - | 736 W/m² | - |
| 1777561239 | 17.78° C | 47% | 1009.9 hPa | 0 mm | - | 193 W/m² | - |
| 1777560938 | 17.78° C | 47% | 1009.9 hPa | 0 mm | - | 230 W/m² | - |
| 1777560333 | 18.33° C | 47% | 1009.7 hPa | 0 mm | - | 181 W/m² | - |
| 1777559726 | 18.33° C | 48% | 1009.9 hPa | 0 mm | - | 628 W/m² | - |
| 1777558815 | 17.22° C | 53% | 1009.9 hPa | 0 mm | - | 589 W/m² | - |
| 1777558511 | 16.67° C | 54% | 1009.8 hPa | 0 mm | - | 581 W/m² | - |
| 1777557903 | 16.67° C | 54% | 1010.1 hPa | 0 mm | - | 483 W/m² | - |
| 1777556080 | 16.11° C | 61% | 1009.7 hPa | 0 mm | - | 474 W/m² | - |
| 1777555779 | 16.11° C | 64% | 1009.7 hPa | 0 mm | - | 457 W/m² | - |
| 1777555172 | 15.56° C | 66% | 1009.7 hPa | 0 mm | - | 431 W/m² | - |
| 1777554870 | 15.56° C | 66% | 1009.6 hPa | 0 mm | - | 417 W/m² | - |
| 1777554566 | 15.56° C | 69% | 1009.6 hPa | 0 mm | - | 402 W/m² | - |
| 1777554263 | 15° C | 74% | 1009.5 hPa | 0 mm | - | 386 W/m² | - |
| 1777553960 | 15° C | 76% | 1009.2 hPa | 0 mm | - | 349 W/m² | - |
| 1777553656 | 14.44° C | 78% | 1009.6 hPa | 0 mm | - | 260 W/m² | - |
| 1777552744 | 13.33° C | 84% | 1009.2 hPa | 0 mm | - | 123 W/m² | - |
| 1777552441 | 13.33° C | 85% | 1009.2 hPa | 0 mm | - | 147 W/m² | - |
| 1777552137 | 13.33° C | 86% | 1009.1 hPa | 0 mm | - | 114 W/m² | - |
| 1777551532 | 13.33° C | 88% | 1008.9 hPa | 0 mm | - | 130 W/m² | - |
| 1777550623 | 12.78° C | 89% | 1009.1 hPa | 0 mm | - | 115 W/m² | - |
* Rain latest hour (hover to see other rain measurements)
** Current wind speed in m/s (hover to see current wind gust speed)